Location: Hilton Head Island
(32.2163°N, 80.7526°W)
Time: 15:40:25
(UTC-05:00)

Explorer 11/Cluster Stage 4 - Pass Details

Date: 20 February 2026
Orbit: 463 x 1176 km, 28.8° (Epoch: 6 March)

Event Time Altitude Azimuth Distance (km) Brightness Sun altitude
Rises 10:29:58 0° 219° (SW) 3,439 10.0 37.4°
Reaches altitude 10° 10:33:28 10° 202° (SSW) 2,346 9.5 37.9°
Maximum altitude 10:37:09 18° 160° (SSE) 1,687 9.7 38.4°
Drops below altitude 10° 10:40:25 10° 116° (ESE) 2,032 9.7 38.8°
Sets 10:43:10 0° 97° (E) 2,817 9.9 39.2°
